[ show orbit diagram ]
Orbital Elements at Epoch 2459000.5 (2020-May-31.0) TDB
Reference: JPL 31 (heliocentric ecliptic J2000)
Element | Value | Uncertainty (1-sigma) | Units |
e | .1971929508356902 | 3.5668e-08 | |
a | 2.580668279007935 | 1.1031e-08 | au |
q | 2.071778685942298 | 9.5351e-08 | au |
i | 12.769679869597 | 4.7925e-06 | deg |
node | 271.1648026385105 | 1.889e-05 | deg |
peri | 101.6844581989395 | 2.5001e-05 | deg |
M | 108.9620416295536 | 1.6467e-05 | deg |
tp | 2458542.179341148683 (2019-Feb-27.67934115) | 6.7624e-05 | TDB |
period | 1514.24693149034 4.15 | 9.7087e-06 2.658e-08 | d yr |
n | .2377419379319354 | 1.5243e-09 | deg/d |
Q | 3.089557872073572 | 1.3206e-08 | au |
|
| | Orbit Determination Parameters
Additional Information
|
[ hide covariance matrix ]
Orbital Elements at Epoch 2457036.5 (2015-Jan-14.0) TDB
Reference: JPL 31 (heliocentric ecliptic J2000)
Element | Value | Uncertainty (1-sigma) | Units |
e | .1970124423052137 | 3.6331e-08 | |
q | 2.072079902931301 | 9.7375e-08 | au |
tp | 2457024.138025784154 (2015-Jan-01.63802578) | 6.2599e-05 | TDB |
node | 271.4036975863443 | 1.8894e-05 | deg |
peri | 100.7654881567773 | 2.4949e-05 | deg |
i | 12.75979446645779 | 4.7972e-06 | deg |
|
| | Orbit Determination Parameters
Additional Information
|
Orbit Covariance (6×6)
|
|
e |
q |
tp |
node |
peri |
i |
e |
1.319959381922829E-15 |
-3.524453927871387E-15 |
-1.381826521061147E-12 |
1.965489104457179E-15 |
-3.679576416473827E-13 |
-6.170370119362257E-15 |
q |
-3.524453927871387E-15 |
9.481877835749681E-15 |
3.833999521782842E-12 |
-3.928573356995379E-15 |
1.017841819351683E-12 |
1.77268519407109E-14 |
tp |
-1.381826521061147E-12 |
3.833999521782842E-12 |
3.91867762823883E-9 |
-5.107806588148724E-12 |
1.03882175900161E-9 |
1.146085529870207E-11 |
node |
1.965489104457179E-15 |
-3.928573356995379E-15 |
-5.107806588148724E-12 |
3.569702751596716E-10 |
-3.493165263567132E-10 |
4.524495056156546E-11 |
peri |
-3.679576416473827E-13 |
1.017841819351683E-12 |
1.03882175900161E-9 |
-3.493165263567132E-10 |
6.224304096505485E-10 |
-4.121795735409573E-11 |
i |
-6.170370119362257E-15 |
1.77268519407109E-14 |
1.146085529870207E-11 |
4.524495056156546E-11 |
-4.121795735409573E-11 |
2.30133423678863E-11 |
|
Physical Parameter Table
Parameter |
Symbol |
Value |
Units |
Sigma |
Reference |
Notes |
absolute magnitude |
H |
14.3 |
|
n/a |
MPO453213 |
|
diameter |
diameter |
3.410 |
km |
0.132 |
urn:nasa:pds:neowise_diameters_albedos::2.0[mainbelt] (http://adsabs.harvard.edu/abs/2011ApJ...741...68M) |
|
rotation period |
rot_per |
6.638 |
h |
n/a |
LCDB (Rev. 2020-October); Warner et al., 2009 |
Result based on less than full coverage, so that the period may be wrong by 30 percent or so. Published Reference List: [Waszczak, A.; Chang, C.-K.; Ofeck, E.O.; Laher, F.; et al. (2015) Astron. J. 150, A75.] |
geometric albedo |
albedo |
0.381 |
|
0.059 |
urn:nasa:pds:neowise_diameters_albedos::2.0[mainbelt] (http://adsabs.harvard.edu/abs/2011ApJ...741...68M) |
|
|
79087 Scheidt | Discovered 1977 Oct. 17 by F. Börngen at Tautenburg. |
Samuel Scheidt (1587-1654), whose birth and death occurred in Halle, which is also the native town of the discoverer, was a famous organist and composer. He greatly influenced sacred vocal music and the Baroque organ style, with his first publication in Germany of his organ works in the modern five-line stave notation. |
NOTE: some special characters may not display properly (any characters within {} are an attempt to place the proper accent above a character) |
Reference: 20050125/MPCPages.arc | Last Updated: 2005-06-01 |
|
Alternate Designations
1977 UM2 = 1998 XQ33 = 2002 OQ24 |
|
|
|